Location: *
(45.1961°N, 1.9694°E)
Time: 12:30:35
(UTC+00:00)

CARTOSAT-1 - Pass Details

Date: 25 August 2019
Orbit: 618 x 618 km, 97.8° (Epoch: 16 September)

Event Time Altitude Azimuth Distance (km) Brightness Sun altitude
Exits shadow 21:46:21 57° 313° (NW) 728 4.1 -27.2°
Drops below altitude 10° 21:49:58 10° 342° (NNW) 1,992 7.0 -27.6°
Sets 21:52:11 0° 345° (NNW) 2,903 8.1 -27.8°
